Regional Weather Roundup
Issued by NWS

Home | Current Version | Previous Version | Text Only | Print | Product List | Glossary Off
Versions: 1 2 3 4 5 6 7 8 9 10 11 12 13 14 15 16 17 18 19 20 21 22 23 24 25 26 27 28 29 30 31 32 33 34 35 36 37 38 39 40 41 42 43 44 45 46 47 48

000
ASUS43 KDMX 041207
RWRIA

WEATHER ROUNDUP FOR IOWA
NATIONAL WEATHER SERVICE DES MOINES IA
700 AM CDT SAT JUL 04 2015

NOTE: "FAIR" INDICATES FEW OR NO CLOUDS BELOW 12,000 FEET WITH NO
SIGNIFICANT WEATHER AND/OR OBSTRUCTIONS TO VISIBILITY.

* - THESE STATIONS ARE NOT NWS STATIONS...THUS NOT UNDER NWS
QUALITY CONTROL.  THEY ALSO DO NOT REPORT WEATHER SUCH
AS PRECIPITATION OR FOG.

IAZ001>003-012>014-020>022-031>034-043>046-041300-
   NORTHWEST IOWA

CITY           SKY/WX    TMP DP  RH WIND       PRES   REMARKS
CARROLL *      SUNNY     55  54  94 CALM      30.01R
CHEROKEE *     SUNNY     54  54 100 CALM      29.99S FOG
DENISON *      SUNNY     54  54 100 MISG      29.99S
LE MARS *      SUNNY     57  57 100 MISG      29.99S FOG
ORANGE CITY *  SUNNY     57  55  94 S3        29.99S FOG
SHELDON *      SUNNY     57  57 100 SE5       29.97S FOG
SIOUX CITY     SUNNY     58  55  90 SE6       29.99R
6HR MIN TEMP:  57; 6HR MAX TEMP:  62;

SPENCER        SUNNY     57  53  86 CALM      29.99S
6HR MIN TEMP:  55; 6HR MAX TEMP:  61;

STORM LAKE *   SUNNY     59  54  82 SW7       30.01S
$$

IAZ055>058-069>071-079>083-090>094-041300-
   SOUTHWEST IOWA

CITY           SKY/WX    TMP DP  RH WIND       PRES   REMARKS
ATLANTIC *     SUNNY     52  52 100 N3        30.01S
AUDUBON *      SUNNY     52  48  87 CALM      30.03R
CLARINDA *     FOG       55  55 100 CALM      30.03R VSB 0
COUNCIL BLFS * SUNNY     59  55  88 S6        30.01S
CRESTON *      SUNNY     61  55  82 CALM      30.02R
HARLAN  *      SUNNY     52  52 100 CALM      30.05R
LAMONI         SUNNY     61  56  83 CALM      30.01R
6HR MIN TEMP:  58; 6HR MAX TEMP:  68;

RED OAK *      SUNNY     55  55 100 CALM      30.01S
SHENANDOAH *   SUNNY     55  55 100 NE3       30.01S
$$

IAZ047>049-059>061-072>074-084-041300-
   CENTRAL IOWA

CITY           SKY/WX    TMP DP  RH WIND       PRES   REMARKS
AMES           SUNNY     55  54  96 CALM      30.01R
6HR MIN TEMP:  52; 6HR MAX TEMP:  59;

ANKENY *       SUNNY     55  55 100 CALM      30.01R FOG
CHARITON *     SUNNY     57  55  94 CALM      30.01S
DES MOINES     MOSUNNY   63  56  78 CALM      30.00R
6HR MIN TEMP:  61; 6HR MAX TEMP:  67;

GRINNELL*      SUNNY     59  56  89 CALM      30.02R
KNOXVILLE *    SUNNY     59  55  88 CALM      30.00R
MARSHALLTOWN   SUNNY     57  56  96 CALM      30.00R
6HR MIN TEMP:  56; 6HR MAX TEMP:  62;

PELLA *        SUNNY     58  58 100 CALM      30.02S
PERRY *          N/A     57  55  94 CALM      30.01S
$$

IAZ004>006-015-016-023>025-035-036-041300-
   NORTH CENTRAL IOWA

CITY           SKY/WX    TMP DP  RH WIND       PRES   REMARKS
ALGONA *       SUNNY     61  57  88 SW6       30.00R
CLARION *      SUNNY     57  54  88 S3        30.00S
ESTHERVILLE    SUNNY     60  56  86 SW5       29.98S FOG
6HR MIN TEMP:  58; 6HR MAX TEMP:  61;

FORT DODGE *   SUNNY     55  54  94 CALM      30.01S
MASON CITY     SUNNY     61  56  83 W6        30.00S
6HR MIN TEMP:  58; 6HR MAX TEMP:  64;

FOREST CITY *  SUNNY     54  54 100 CALM      29.99S
IOWA FALLS *     N/A     55  54  94 CALM      30.01S
$$

IAZ007>011-017>019-026>030-037>042-050>054-066-041300-
   NORTHEAST IOWA

CITY           SKY/WX    TMP DP  RH WIND       PRES   REMARKS
CEDAR RAPIDS   SUNNY     58  57  97 CALM      30.00R
6HR MIN TEMP:  55; 6HR MAX TEMP:  60;

CHARLES CITY * SUNNY     59  59 100 SW3       29.99S
CLINTON *      SUNNY     59  55  88 N3        30.03R
DECORAH *        N/A    N/A N/A N/A MISG        N/A
DUBUQUE        SUNNY     58  55  90 CALM      30.00R
6HR MIN TEMP:  55; 6HR MAX TEMP:  59;

MONTICELLO *   SUNNY     55  55 100 MISG      30.00R
OELWEIN *      SUNNY     57  57 100 CALM      30.00S
WATERLOO       SUNNY     57  55  93 CALM      29.98S
6HR MIN TEMP:  54; 6HR MAX TEMP:  60;

$$

IAZ064-065-067-068-078-041300-
   EAST CENTRAL IOWA

CITY           SKY/WX    TMP DP  RH WIND       PRES   REMARKS
DAVENPORT      SUNNY     58  56  93 CALM      30.00R FOG
6HR MIN TEMP:  55; 6HR MAX TEMP:  59;

IOWA CITY      SUNNY     58  56  93 CALM      30.01R
6HR MIN TEMP:  56; 6HR MAX TEMP:  61;

MT. PLEASANT * SUNNY     61  57  88 CALM      30.00R FOG
MUSCATINE *    SUNNY     59  57  94 CALM      30.00S
QUAD CITIES    SUNNY     59  56  89 CALM      29.99R FOG
6HR MIN TEMP:  56; 6HR MAX TEMP:  61;

$$

IAZ062-063-075>077-085>089-095>099-041300-
   SOUTHEAST IOWA

CITY           SKY/WX    TMP DP  RH WIND       PRES   REMARKS
BURLINGTON     SUNNY     60  59  96 N3        29.99R
6HR MIN TEMP:  57; 6HR MAX TEMP:  62;

FAIRFIELD *    SUNNY     57  55  94 NW3       30.01R
FORT MADISON * SUNNY     61  59  94 CALM      30.01R FOG
KEOKUK *       SUNNY     61  59  94 CALM      29.99R FOG
OSKALOOSA *      N/A     58  56  96 CALM      30.01S
CENTERVILLE *  SUNNY     59  57  94 CALM      30.03R
OTTUMWA        SUNNY     58  57  97 CALM      29.99R
6HR MIN TEMP:  55; 6HR MAX TEMP:  60;

WASHINGTON *   SUNNY     59  57  94 NW5       30.02R
$$

ABBREVIATIONS USED IN REMARKS
   TC - TEMPERATURES IN CELSIUS
  WCI - WIND CHILL INDEX
   HX - HEAT INDEX
  VSB - VISIBILITY
$$




USA.gov is the U.S. government's official web portal to all federal, state and local government web resources and services.